This is the latest recevied weather packets stored in our database for station/object VE1DX. If no packets are shown the sender has not sent any weather packets the latest 10 day(s).
| Time | Temp. | Humidity | Pressure | Rain* | Wind** | Luminosity | Snow |
|---|---|---|---|---|---|---|---|
| 1778000716 | 17.22° C | 61% | 1013.7 hPa | 0 mm | - | - | - |
| 1778000416 | 16.67° C | 63% | 1013.9 hPa | 0 mm | - | - | - |
| 1778000116 | 16.67° C | 62% | 1013.9 hPa | 0 mm | - | - | - |
| 1777999816 | 16.67° C | 65% | 1013.9 hPa | 0 mm | - | - | - |
| 1777999517 | 16.11° C | 64% | 1014 hPa | 0 mm | - | - | - |
| 1777999216 | 16.11° C | 65% | 1013.8 hPa | 0 mm | - | - | - |
| 1777998916 | 16.11° C | 65% | 1013.9 hPa | 0 mm | - | - | - |
| 1777998616 | 16.11° C | 66% | 1013.9 hPa | 0 mm | - | - | - |
| 1777998317 | 16.11° C | 64% | 1014 hPa | 0 mm | - | - | - |
| 1777998016 | 16.11° C | 64% | 1013.9 hPa | 0 mm | - | - | - |
| 1777997717 | 16.11° C | 65% | 1014 hPa | 0 mm | - | - | - |
| 1777997416 | 15.56° C | 65% | 1014 hPa | 0 mm | - | - | - |
| 1777997116 | 15.56° C | 66% | 1013.9 hPa | 0 mm | - | - | - |
| 1777996817 | 15.56° C | 65% | 1013.9 hPa | 0 mm | - | - | - |
| 1777996517 | 15.56° C | 65% | 1013.8 hPa | 0 mm | - | - | - |
| 1777996216 | 15.56° C | 66% | 1013.8 hPa | 0 mm | - | - | - |
| 1777995917 | 16.11° C | 64% | 1013.8 hPa | 0 mm | - | - | - |
| 1777995617 | 16.11° C | 64% | 1013.7 hPa | 0 mm | - | - | - |
| 1777995317 | 16.11° C | 65% | 1013.7 hPa | 0 mm | - | - | - |
| 1777995017 | 15.56° C | 65% | 1013.7 hPa | 0 mm | - | - | - |
| 1777994717 | 15.56° C | 65% | 1013.7 hPa | 0 mm | - | - | - |
| 1777994417 | 15.56° C | 66% | 1013.8 hPa | 0 mm | - | - | - |
| 1777994116 | 15.56° C | 65% | 1013.7 hPa | 0 mm | - | - | - |
| 1777993817 | 15.56° C | 66% | 1013.8 hPa | 0 mm | - | - | - |
| 1777993516 | 15° C | 68% | 1013.9 hPa | 0 mm | - | - | - |
* Rain latest hour (hover to see other rain measurements)
** Current wind speed in m/s (hover to see current wind gust speed)